[[{"header":{"parameterUnit":"m.s-1","parameterCategory":1,"la1":30.2991,"la2":30.254,"lo1":-89.0895,"lo2":-89.0444,"dy":0.0017,"dx":0.0017,"nx":28,"ny":28,"refTime":"2025-02-03T03:00:00:Z","depth":0,"parameterNumber":2,"parameterNumberName":"U-component_of_WINDS"},"data":[0,0,0,0,0,0,0,0,0,0,0,0,0,0,0,0,0,0,0,0,0,0,0,0,0,0,0,0,0,0,0,0,0,0,0,0,0,0,0,0,0,0,0,0,0,0,0,0,0,0,0,0,0,0,0,0,0,0,-1.8373,-1.8373,0,-1.8415,-1.8416,-1.8416,-1.8391,-1.839,-1.8388,-1.8387,-1.8432,-1.8434,-1.8437,0,0,0,0,0,0,0,0,0,0,0,0,0,-1.8273,-1.8275,-1.8373,-1.8373,-1.8374,-1.8415,-1.8416,-1.8416,-1.8391,-1.8389,-1.8388,-1.8387,-1.8431,-1.8434,-1.8437,0,0,0,0,0,0,0,0,0,0,0,0,0,-1.8316,-1.8276,-1.8373,-1.8366,-1.8366,-1.8415,-1.8416,-1.8416,-1.8391,-1.8389,-1.8388,-1.8386,-1.8431,-1.8434,-1.8437,-1.8496,0,0,-1.8448,-1.845,0,0,0,0,0,0,0,0,-1.8314,-1.832,-1.8367,-1.8367,-1.8367,-1.8396,-1.8397,-1.8443,-1.8392,-1.8382,-1.8387,-1.8385,-1.8422,-1.8426,-1.8438,-1.8498,-1.85,-1.8448,-1.8451,-1.8452,-1.8453,0,0,0,0,0,0,0,-1.8311,-1.8318,-1.839,-1.8367,-1.8367,-1.8362,-1.8366,-1.8406,-1.8412,-1.8382,-1.8381,-1.8386,-1.8421,-1.8434,-1.8439,-1.85,-1.8448,-1.8451,-1.8454,-1.8455,-1.8613,-1.8615,0,0,0,0,0,0,-1.8308,-1.8315,-1.8388,-1.8391,-1.8335,-1.8365,-1.837,-1.8388,-1.8411,-1.8413,-1.8388,-1.8385,-1.8429,-1.8435,-1.844,-1.8511,-1.8452,-1.8455,-1.8457,-1.8611,-1.8613,-1.8615,0,0,0,0,0,0,-1.8306,-1.8315,-1.8387,-1.8353,-1.8361,-1.8369,-1.839,-1.839,-1.8403,-1.8415,-1.8416,-1.84,-1.8428,-1.8435,-1.8482,-1.8512,-1.8457,-1.846,-1.8608,-1.8611,-1.8614,-1.8652,0,0,0,0,0,0,-1.8303,-1.8314,-1.8335,-1.8353,-1.8363,-1.8427,-1.8392,-1.8392,-1.8409,-1.8406,-1.8426,-1.8428,-1.8427,-1.8477,-1.8486,-1.8516,-1.8463,-1.8606,-1.861,-1.8613,-1.8648,-1.8656,-1.8663,0,0,0,0,0,-1.83,-1.8344,-1.8336,-1.8345,-1.839,-1.8429,-1.8435,-1.8432,-1.8412,-1.8434,-1.8442,-1.8428,-1.8508,-1.8482,-1.8492,-1.8523,-1.8604,-1.8608,-1.8613,-1.8645,-1.8655,-1.8663,0,0,0,0,0,0,-1.8329,-1.8346,-1.8338,-1.839,-1.8408,-1.8424,-1.8452,-1.8442,-1.8467,-1.8463,-1.846,-1.8465,-1.8514,-1.8524,-1.8495,-1.8582,-1.8553,-1.8559,-1.8574,-1.8583,-1.859,-1.8587,-1.8466,0,0,0,0,0,-1.8342,-1.8371,-1.8385,-1.8429,-1.8439,-1.8444,-1.8461,-1.8458,-1.8477,-1.8484,-1.8496,-1.8515,-1.8545,-1.8565,-1.8593,-1.865,-1.8655,-1.8677,-1.8684,-1.869,-1.8696,-1.8729,-1.8739,-1.8631,-1.8631,-1.8631,0,0,-1.8368,-1.8381,-1.84,-1.8436,-1.8449,-1.8481,-1.8451,-1.8485,-1.8509,-1.849,-1.8535,-1.8544,-1.8566,-1.8619,-1.8643,-1.8629,-1.8727,-1.8696,-1.8701,-1.8703,-1.8735,-1.8745,-1.8754,-1.8634,-1.8633,-1.8633,0,0,-1.8432,-1.8444,-1.8483,-1.8498,-1.852,-1.8523,-1.8533,-1.8551,-1.8557,-1.8602,-1.8589,-1.8618,-1.8669,-1.8686,-1.8701,-1.8774,-1.8763,-1.8784,-1.8822,-1.8854,-1.8862,-1.887,-1.8897,-1.8906,-1.8789,-1.8789,-1.879,0,-1.8462,-1.8508,-1.8504,-1.854,-1.8557,-1.8542,-1.8582,-1.8597,-1.8627,-1.8639,-1.8623,-1.8688,-1.8702,-1.8759,-1.8777,-1.879,-1.8802,-1.878,-1.8861,-1.8869,-1.8876,-1.8901,-1.8911,-1.8792,-1.8792,-1.8791,-1.8791,0,-1.8544,-1.8576,-1.8605,-1.8635,-1.8655,-1.8693,-1.8697,-1.8718,-1.8714,-1.872,-1.8767,-1.8784,-1.8815,-1.8829,-1.8825,-1.8887,-1.8877,-1.8861,-1.8831,-1.8888,-1.8912,-1.8922,-1.8795,-1.8794,-1.8794,-1.8793,0,0,-1.8625,-1.8654,-1.8665,-1.8679,-1.8703,-1.8728,-1.8766,-1.8797,-1.8816,-1.8838,-1.8871,-1.8915,-1.8901,-1.8919,-1.8917,-1.8945,-1.9004,-1.8926,-1.8926,-1.894,-1.9074,-1.9086,-1.9097,-1.8997,-1.8998,-1.9,-1.9072,0,-1.8691,-1.8756,-1.8756,-1.8817,-1.8848,-1.8836,-1.8869,-1.8888,-1.8896,-1.8924,-1.8932,-1.8964,-1.8943,-1.8953,-1.8981,-1.899,-1.903,-1.8985,-1.9028,-1.9029,-1.9022,-1.911,-1.9122,-1.9189,-1.9082,-1.9083,-1.9084,0,-1.8775,-1.88,-1.8865,-1.8886,-1.8899,-1.8929,-1.8958,-1.8985,-1.9007,-1.9011,-1.9031,-1.9026,-1.9066,-1.9036,-1.9093,-1.9062,-1.908,-1.9088,-1.9091,-1.9094,-1.906,-1.9116,-1.921,-1.9221,-1.9099,-1.9098,-1.9097,0,-1.8829,-1.8879,-1.8924,-1.8936,-1.8962,-1.8984,-1.8996,-1.9016,-1.9035,-1.9062,-1.9075,-1.9105,-1.9122,-1.9147,-1.9151,-1.9129,-1.9209,-1.9178,-1.9214,-1.9214,-1.923,-1.9229,-1.9329,-1.9242,-1.9242,-1.9242,-1.9241,0,-1.8902,-1.8942,-1.8949,-1.8976,-1.9022,-1.9022,-1.9067,-1.9077,-1.9096,-1.9127,-1.9118,-1.9148,-1.9151,-1.9182,-1.9185,-1.9233,-1.924,-1.9245,-1.9245,-1.9246,-1.9245,-1.9257,-1.9252,-1.9244,-1.9244,-1.9243,-1.9243,0,-1.8969,-1.8975,-1.9023,-1.9044,-1.9051,-1.9083,-1.9102,-1.9129,-1.9136,-1.9176,-1.9185,-1.9197,-1.9233,-1.9239,-1.9282,-1.9284,-1.9341,-1.9336,-1.9333,-1.9332,-1.9367,-1.9364,-1.9478,-1.9494,-1.9397,-1.9398,-1.9398,0,-1.9014,-1.9045,-1.907,-1.9089,-1.9102,-1.9134,-1.9154,-1.9157,-1.9178,-1.9207,-1.9232,-1.9267,-1.9295,-1.9354,-1.9367,-1.94,-1.9396,-1.9434,-1.9401,-1.9401,-1.9397,-1.9395,-1.9399,-1.944,-1.9441,-1.9442,-1.9443,0,-1.9095,-1.9097,-1.9126,-1.9157,-1.9181,-1.9205,-1.9228,-1.9245,-1.9251,-1.9276,-1.9312,-1.9334,-1.9379,-1.9414,-1.9448,-1.9461,-1.9454,-1.9453,-1.9463,-1.9464,-1.9461,-1.9463,-1.935,-1.945,-1.945,-1.9449,-1.9449,-1.9448,-1.9153,-1.918,-1.9202,-1.9235,-1.9253,-1.9276,-1.9303,-1.9314,-1.9344,-1.938,-1.938,-1.9421,-1.9445,-1.9489,-1.9505,-1.9538,-1.9526,-1.954,-1.9544,-1.9547,-1.9551,-1.9456,-1.9544,-1.9544,-1.9544,-1.9543,-1.9543,0,-1.9234,-1.9248,-1.9278,-1.9311,-1.9338,-1.9328,-1.9354,-1.9377,-1.9413,-1.9436,-1.9464,-1.9507,-1.9542,-1.9559,-1.9594,-1.9618,-1.9615,-1.9627,-1.9625,-1.9629,-1.9559,-1.9547,-1.9628,-1.9628,-1.9628,-1.9628,-1.9628,-1.9628,-1.9279,-1.9325,-1.933,-1.9386,-1.94,-1.9439,-1.9455,-1.9476,-1.9494,-1.9543,-1.9572,-1.9583,-1.9604,-1.9641,-1.9673,-1.9678,-1.9691,-1.9704,-1.9707,-1.9642,-1.9633,-1.9625,-1.9614,-1.9707,-1.9707,-1.9774,-1.9774,-1.9775]},{"header":{"parameterUnit":"m.s-1","parameterCategory":1,"la1":30.2991,"la2":30.254,"lo1":-89.0895,"lo2":-89.0444,"dy":0.0017,"dx":0.0017,"nx":28,"ny":28,"refTime":"2025-02-03T03:00:00:Z","depth":0,"parameterNumber":3,"parameterNumberName":"V-component_of_WINDS"},"data":[0,0,0,0,0,0,0,0,0,0,0,0,0,0,0,0,0,0,0,0,0,0,0,0,0,0,0,0,0,0,0,0,0,0,0,0,0,0,0,0,0,0,0,0,0,0,0,0,0,0,0,0,0,0,0,0,0,0,0.9754,0.9755,0,0.9783,0.9783,0.9783,0.979,0.979,0.9789,0.9789,0.9817,0.9817,0.9818,0,0,0,0,0,0,0,0,0,0,0,0,0,0.9706,0.9707,0.9754,0.9755,0.9755,0.9783,0.9783,0.9783,0.979,0.979,0.9789,0.9789,0.9816,0.9817,0.9818,0,0,0,0,0,0,0,0,0,0,0,0,0,0.973,0.9707,0.9754,0.9762,0.9762,0.9783,0.9783,0.9784,0.979,0.979,0.9789,0.9789,0.9816,0.9817,0.9819,0.9833,0,0,0.9823,0.9823,0,0,0,0,0,0,0,0,0.9728,0.9731,0.976,0.9761,0.9762,0.9782,0.9776,0.98,0.979,0.9779,0.9789,0.9789,0.9805,0.9808,0.9813,0.9834,0.9835,0.9823,0.9824,0.9824,0.9825,0,0,0,0,0,0,0,0.9727,0.973,0.9765,0.9761,0.9762,0.9764,0.9767,0.9781,0.9794,0.978,0.9781,0.9784,0.9806,0.9812,0.9814,0.9836,0.9823,0.9824,0.9825,0.9825,0.9872,0.9873,0,0,0,0,0,0,0.9724,0.9729,0.9765,0.9766,0.9744,0.9765,0.9768,0.9776,0.9793,0.9796,0.9784,0.9784,0.981,0.9813,0.9815,0.9835,0.9824,0.9826,0.9826,0.9872,0.9872,0.9873,0,0,0,0,0,0,0.9723,0.9727,0.9763,0.9748,0.9753,0.9766,0.9775,0.9777,0.9783,0.9797,0.9799,0.9789,0.981,0.9813,0.9829,0.9836,0.9826,0.9827,0.9871,0.9872,0.9873,0.9873,0,0,0,0,0,0,0.9721,0.9726,0.9732,0.9748,0.9753,0.9777,0.9775,0.9778,0.9786,0.9786,0.9801,0.9803,0.981,0.9827,0.9831,0.9837,0.9828,0.9871,0.9872,0.9872,0.9872,0.9874,0.9875,0,0,0,0,0,0.972,0.973,0.9732,0.9736,0.976,0.9777,0.978,0.9788,0.9786,0.9792,0.9801,0.9803,0.9835,0.9829,0.9833,0.984,0.987,0.9871,0.9872,0.9872,0.9873,0.9875,0,0,0,0,0,0,0.9713,0.9732,0.9735,0.975,0.9762,0.9778,0.9785,0.9789,0.9801,0.9801,0.981,0.9813,0.9829,0.9836,0.9829,0.9856,0.9852,0.9854,0.9851,0.9852,0.9853,0.9851,0.983,0,0,0,0,0,0.9713,0.9725,0.9741,0.9754,0.976,0.9772,0.9779,0.9785,0.9797,0.9802,0.9812,0.9824,0.9837,0.9845,0.9857,0.9874,0.9878,0.9881,0.9882,0.9883,0.9884,0.9896,0.9898,0.9876,0.9876,0.9876,0,0,0.9714,0.9726,0.9733,0.9753,0.9763,0.9776,0.9776,0.9789,0.9799,0.9804,0.982,0.9828,0.9842,0.9859,0.9867,0.9865,0.9891,0.9884,0.9885,0.9886,0.9897,0.9899,0.9901,0.9877,0.9877,0.9877,0,0,0.9722,0.9732,0.9744,0.9755,0.9771,0.9779,0.9782,0.9798,0.9804,0.9821,0.9826,0.9838,0.9859,0.987,0.9878,0.9893,0.9896,0.9897,0.9902,0.9913,0.9915,0.9917,0.9924,0.9926,0.9898,0.9898,0.9898,0,0.972,0.974,0.975,0.9764,0.9773,0.978,0.9793,0.9803,0.9821,0.9828,0.9826,0.9855,0.9865,0.9885,0.989,0.9895,0.99,0.9895,0.9914,0.9916,0.9917,0.9924,0.9927,0.9898,0.9898,0.9898,0.9898,0,0.9739,0.9753,0.9761,0.9781,0.9791,0.9804,0.9816,0.9826,0.9831,0.984,0.9858,0.987,0.9886,0.9892,0.9896,0.9914,0.9912,0.9912,0.9909,0.9919,0.9926,0.9929,0.9899,0.9899,0.9898,0.9898,0,0,0.9741,0.9768,0.9771,0.9781,0.98,0.9811,0.9826,0.9843,0.9852,0.9865,0.9878,0.9897,0.9898,0.9908,0.9913,0.9923,0.9937,0.9922,0.9923,0.9926,0.9959,0.996,0.9962,0.9939,0.994,0.994,0.9958,0,0.9752,0.9779,0.979,0.9811,0.9825,0.9834,0.9847,0.986,0.9869,0.9883,0.9893,0.9907,0.9906,0.9912,0.9922,0.9933,0.9944,0.9932,0.9952,0.9952,0.9949,0.9966,0.9965,0.9982,0.9961,0.9961,0.9962,0,0.9768,0.9784,0.9807,0.9828,0.9834,0.9845,0.9863,0.9876,0.9892,0.9898,0.991,0.9916,0.9933,0.9929,0.9952,0.9944,0.9953,0.9959,0.996,0.9963,0.9958,0.9969,0.9988,0.999,0.9965,0.9965,0.9965,0,0.9769,0.9796,0.9814,0.9822,0.9846,0.9854,0.9864,0.988,0.9891,0.9906,0.9914,0.993,0.994,0.9953,0.9964,0.996,0.9987,0.9983,0.9993,0.9993,0.9998,0.9998,1.0019,1.0003,1.0003,1.0003,1.0003,0,0.9781,0.9795,0.9816,0.9827,0.9844,0.9856,0.9873,0.9884,0.9898,0.9912,0.992,0.9933,0.9946,0.9961,0.997,0.9989,0.9993,0.9999,1.0001,0.9999,0.9998,1.0005,1.0004,1.0004,1.0004,1.0004,1.0003,0,0.9784,0.9798,0.9819,0.9841,0.9847,0.9859,0.9877,0.9889,0.99,0.9917,0.9922,0.9939,0.9957,0.997,0.9992,0.9998,1.002,1.0021,1.0014,1.0016,1.0025,1.0025,1.0052,1.0057,1.0037,1.0037,1.0037,0,0.9791,0.9803,0.9826,0.9837,0.9848,0.9864,0.9876,0.9889,0.9901,0.9922,0.9932,0.9951,0.9967,0.9996,1.001,1.0028,1.0031,1.0039,1.0033,1.0031,1.0032,1.0032,1.0034,1.004,1.004,1.004,1.004,0,0.9801,0.9809,0.9825,0.9845,0.9859,0.9875,0.9891,0.9899,0.9916,0.9929,0.9949,0.9961,0.9986,1.0006,1.0026,1.0036,1.0042,1.0042,1.0046,1.0043,1.004,1.0043,1.0018,1.0041,1.0041,1.0041,1.0041,1.0041,0.9807,0.9819,0.9839,0.9858,0.9872,0.9887,0.99,0.9914,0.9931,0.9953,0.996,0.9981,0.9999,1.0027,1.0038,1.0055,1.0054,1.0059,1.006,1.0061,1.0062,1.0037,1.0059,1.0059,1.0059,1.0059,1.0059,0,0.9819,0.9833,0.9851,0.9874,0.989,0.9895,0.9914,0.9926,0.9945,0.9962,0.9978,1.0002,1.0022,1.0039,1.0059,1.007,1.0073,1.0075,1.0074,1.0077,1.0061,1.0056,1.0072,1.0072,1.0072,1.0072,1.0072,1.0072,0.9827,0.9848,0.9858,0.9887,0.9901,0.9922,0.9933,0.9948,0.9962,0.9989,1.0006,1.0017,1.0035,1.0057,1.0076,1.008,1.0088,1.0089,1.0095,1.0079,1.0078,1.0076,1.0072,1.0091,1.0091,1.0109,1.011,1.011]}]]